• In Hungary
  • List of Countries
  • For 7 days
  • Water Temperature
  • Satellite Maps
  • Weather Map
  • News
  • Weather Widgets
  • user-avatar
    Login

    Hourly Weather Shaki

    Today, 16 August, Wednesday

    Time Temperature Precipitation Wind Pressure Humidity
    00:00 +26°C° 0 mm 3 mps 734 mmHg 42%
    01:00 +25°C° 0 mm 3 mps 734 mmHg 45%
    02:00 +25°C° 0 mm 3 mps 733 mmHg 47%
    03:00 +24°C° 0 mm 2 mps 734 mmHg 50%
    04:00 +25°C° 0 mm 2 mps 734 mmHg 50%
    05:00 +25°C° 0 mm 2 mps 734 mmHg 50%
    06:00 +25°C° 0 mm 2 mps 734 mmHg 50%
    07:00 +27°C° 0 mm 2 mps 734 mmHg 47%
    08:00 +28°C° 0 mm 2 mps 734 mmHg 44%
    09:00 +30°C° 0 mm 3 mps 734 mmHg 43%
    10:00 +30°C° 0.1 mm 3 mps 734 mmHg 43%
    11:00 +30°C° 0.1 mm 3 mps 734 mmHg 43%
    12:00 +30°C° 0.1 mm 3 mps 734 mmHg 43%
    13:00 +30°C° 0.1 mm 2 mps 734 mmHg 43%
    14:00 +31°C° 0.1 mm 2 mps 734 mmHg 43%
    15:00 +31°C° 0.1 mm 2 mps 733 mmHg 43%
    16:00 +30°C° 0 mm 2 mps 733 mmHg 43%
    17:00 +30°C° 0 mm 2 mps 733 mmHg 43%
    18:00 +30°C° 0 mm 2 mps 733 mmHg 43%
    19:00 +29°C° 0 mm 2 mps 734 mmHg 44%
    20:00 +28°C° 0 mm 2 mps 734 mmHg 46%
    21:00 +27°C° 0 mm 2 mps 734 mmHg 47%
    22:00 +26°C° 0 mm 2 mps 734 mmHg 47%
    23:00 +26°C° 0 mm 2 mps 734 mmHg 47%

    Tomorrow, 17 August, Thursday

    Time Temperature Precipitation Wind Pressure Humidity
    00:00 +26°C° 0 mm 2 mps 734 mmHg 47%
    01:00 +25°C° 0 mm 2 mps 734 mmHg 49%
    02:00 +25°C° 0 mm 2 mps 734 mmHg 50%
    03:00 +25°C° 0 mm 1 mps 734 mmHg 51%
    04:00 +25°C° 0 mm 1 mps 734 mmHg 51%
    05:00 +25°C° 0 mm 1 mps 734 mmHg 50%
    06:00 +25°C° 0 mm 1 mps 734 mmHg 49%
    07:00 +27°C° 0 mm 1 mps 734 mmHg 43%
    08:00 +28°C° 0 mm 2 mps 734 mmHg 38%
    09:00 +30°C° 0 mm 2 mps 734 mmHg 32%
    10:00 +31°C° 0 mm 2 mps 734 mmHg 30%
    11:00 +33°C° 0 mm 3 mps 734 mmHg 28%
    12:00 +34°C° 0 mm 3 mps 734 mmHg 25%
    13:00 +34°C° 0 mm 4 mps 734 mmHg 26%
    14:00 +34°C° 0 mm 4 mps 733 mmHg 26%
    15:00 +35°C° 0 mm 4 mps 733 mmHg 27%
    16:00 +34°C° 0 mm 4 mps 733 mmHg 30%
    17:00 +33°C° 0 mm 3 mps 733 mmHg 33%
    18:00 +31°C° 0 mm 3 mps 733 mmHg 36%
    19:00 +29°C° 0 mm 3 mps 734 mmHg 38%
    20:00 +28°C° 0 mm 3 mps 734 mmHg 39%
    21:00 +27°C° 0 mm 3 mps 734 mmHg 41%
    22:00 +26°C° 0 mm 2 mps 734 mmHg 42%
    23:00 +26°C° 0 mm 2 mps 734 mmHg 42%

    Day after tomorrow, 18 August, Friday

    Time Temperature Precipitation Wind Pressure Humidity
    00:00 +25°C° 0 mm 2 mps 734 mmHg 43%
    01:00 +25°C° 0 mm 2 mps 734 mmHg 43%
    02:00 +25°C° 0 mm 2 mps 734 mmHg 43%
    03:00 +24°C° 0 mm 2 mps 734 mmHg 43%
    04:00 +24°C° 0 mm 2 mps 734 mmHg 43%
    05:00 +25°C° 0 mm 2 mps 734 mmHg 43%
    06:00 +25°C° 0 mm 2 mps 734 mmHg 43%
    07:00 +27°C° 0 mm 2 mps 734 mmHg 38%
    08:00 +29°C° 0 mm 2 mps 734 mmHg 34%
    09:00 +31°C° 0 mm 2 mps 734 mmHg 30%
    10:00 +32°C° 0 mm 2 mps 734 mmHg 28%
    11:00 +34°C° 0 mm 2 mps 734 mmHg 26%
    12:00 +35°C° 0 mm 2 mps 734 mmHg 25%
    13:00 +36°C° 0 mm 2 mps 733 mmHg 24%
    14:00 +36°C° 0 mm 3 mps 733 mmHg 23%
    15:00 +37°C° 0 mm 3 mps 733 mmHg 23%
    16:00 +36°C° 0 mm 3 mps 733 mmHg 24%
    17:00 +35°C° 0 mm 3 mps 734 mmHg 26%
    18:00 +34°C° 0 mm 3 mps 734 mmHg 27%
    19:00 +31°C° 0 mm 3 mps 734 mmHg 29%
    20:00 +30°C° 0 mm 3 mps 735 mmHg 31%
    21:00 +28°C° 0 mm 3 mps 735 mmHg 33%
    22:00 +27°C° 0 mm 3 mps 735 mmHg 33%
    23:00 +27°C° 0 mm 3 mps 736 mmHg 34%

    19 August, Saturday

    Time Temperature Precipitation Wind Pressure Humidity
    00:00 +26°C° 0 mm 2 mps 736 mmHg 34%
    01:00 +26°C° 0 mm 2 mps 736 mmHg 35%
    02:00 +26°C° 0 mm 2 mps 736 mmHg 35%
    03:00 +25°C° 0 mm 2 mps 736 mmHg 35%
    04:00 +26°C° 0 mm 2 mps 736 mmHg 35%
    05:00 +26°C° 0 mm 2 mps 736 mmHg 35%
    06:00 +26°C° 0 mm 1 mps 736 mmHg 35%
    07:00 +28°C° 0 mm 1 mps 736 mmHg 31%
    08:00 +30°C° 0 mm 1 mps 736 mmHg 26%
    09:00 +32°C° 0 mm 1 mps 737 mmHg 21%
    10:00 +34°C° 0 mm 2 mps 736 mmHg 20%
    11:00 +35°C° 0 mm 2 mps 736 mmHg 19%
    12:00 +36°C° 0 mm 3 mps 736 mmHg 17%
    13:00 +37°C° 0 mm 3 mps 736 mmHg 17%
    14:00 +37°C° 0 mm 4 mps 736 mmHg 17%
    15:00 +38°C° 0 mm 4 mps 736 mmHg 16%
    16:00 +37°C° 0 mm 4 mps 736 mmHg 18%
    17:00 +36°C° 0 mm 4 mps 736 mmHg 20%
    18:00 +34°C° 0 mm 4 mps 736 mmHg 22%
    19:00 +33°C° 0 mm 4 mps 736 mmHg 24%
    20:00 +30°C° 0 mm 4 mps 737 mmHg 26%
    21:00 +28°C° 0 mm 4 mps 737 mmHg 27%
    22:00 +27°C° 0 mm 3 mps 737 mmHg 28%
    23:00 +26°C° 0 mm 3 mps 737 mmHg 29%

    20 August, Sunday

    Time Temperature Precipitation Wind Pressure Humidity
    00:00 +26°C° 0 mm 3 mps 737 mmHg 31%
    01:00 +25°C° 0 mm 2 mps 737 mmHg 31%
    02:00 +25°C° 0 mm 2 mps 737 mmHg 31%
    03:00 +25°C° 0 mm 2 mps 737 mmHg 31%
    04:00 +25°C° 0 mm 2 mps 737 mmHg 30%
    05:00 +25°C° 0 mm 2 mps 737 mmHg 30%
    06:00 +25°C° 0 mm 1 mps 737 mmHg 29%
    07:00 +27°C° 0 mm 1 mps 737 mmHg 26%
    08:00 +30°C° 0 mm 1 mps 737 mmHg 23%
    09:00 +32°C° 0 mm 1 mps 737 mmHg 19%
    10:00 +34°C° 0 mm 2 mps 736 mmHg 18%
    11:00 +35°C° 0 mm 3 mps 736 mmHg 17%
    12:00 +36°C° 0 mm 3 mps 735 mmHg 17%
    13:00 +37°C° 0 mm 3 mps 735 mmHg 16%
    14:00 +37°C° 0 mm 4 mps 735 mmHg 16%
    15:00 +38°C° 0 mm 4 mps 735 mmHg 16%
    16:00 +37°C° 0 mm 4 mps 735 mmHg 18%
    17:00 +35°C° 0 mm 4 mps 735 mmHg 20%
    18:00 +34°C° 0 mm 4 mps 735 mmHg 22%
    19:00 +33°C° 0 mm 4 mps 735 mmHg 24%
    20:00 +30°C° 0 mm 4 mps 736 mmHg 26%
    21:00 +28°C° 0 mm 4 mps 736 mmHg 27%
    22:00 +27°C° 0 mm 3 mps 736 mmHg 28%
    23:00 +27°C° 0 mm 3 mps 736 mmHg 30%

    21 August, Monday

    Time Temperature Precipitation Wind Pressure Humidity
    00:00 +26°C° 0 mm 2 mps 736 mmHg 31%
    01:00 +26°C° 0 mm 2 mps 736 mmHg 31%
    02:00 +25°C° 0 mm 2 mps 736 mmHg 31%
    03:00 +25°C° 0 mm 2 mps 736 mmHg 32%
    04:00 +25°C° 0 mm 2 mps 736 mmHg 32%
    05:00 +25°C° 0 mm 2 mps 736 mmHg 32%
    06:00 +26°C° 0 mm 2 mps 736 mmHg 31%
    07:00 +28°C° 0 mm 2 mps 736 mmHg 28%
    08:00 +30°C° 0 mm 2 mps 736 mmHg 24%
    09:00 +32°C° 0 mm 2 mps 736 mmHg 20%
    10:00 +34°C° 0 mm 2 mps 736 mmHg 19%
    11:00 +35°C° 0 mm 2 mps 735 mmHg 18%
    12:00 +36°C° 0 mm 2 mps 735 mmHg 17%
    13:00 +37°C° 0 mm 3 mps 735 mmHg 17%
    14:00 +37°C° 0 mm 3 mps 735 mmHg 16%
    15:00 +38°C° 0 mm 3 mps 734 mmHg 16%
    16:00 +37°C° 0 mm 3 mps 734 mmHg 18%
    17:00 +36°C° 0 mm 3 mps 735 mmHg 20%
    18:00 +35°C° 0 mm 3 mps 735 mmHg 22%
    19:00 +33°C° 0 mm 4 mps 735 mmHg 23%
    20:00 +30°C° 0 mm 4 mps 735 mmHg 25%
    21:00 +28°C° 0 mm 4 mps 735 mmHg 27%
    22:00 +28°C° 0 mm 3 mps 735 mmHg 28%
    23:00 +27°C° 0 mm 3 mps 735 mmHg 28%
    Show more